Location: Newark
(49.5647°N, 8.2922°E)
Time: 12:31:02
(UTC+00:00)

S-56A Canister/Altair - Pass Details

Date: 18 February 2020
Orbit: 634 x 2498 km, 38.9° (Epoch: 07 April)

Event Time Altitude Azimuth Distance (km) Brightness Sun altitude
Rises 17:46:51 0° 278° (W) 5,811 13.8 -9.8°
Reaches altitude 10° 17:52:06 10° 266° (W) 4,524 13.1 -10.7°
Maximum altitude 18:00:09 22° 224° (SW) 3,137 11.2 -12.0°
Drops below altitude 10° 18:06:30 10° 178° (S) 3,439 10.9 -13.0°
Sets 18:09:50 0° 163° (SSE) 4,116 11.1 -13.5°
